GOKTURK 2 (39030 NORAD) Tracking and Keplerian Element Data

This shows tracking and keplerian element data for the satellite.

Feedback or suggestion? Click here.




ElementValue
Catalog39030
NameGOKTURK 2
Epoch Orbit65111
Epoch Day35.14225117
Epoch Year2025
RAAN251.6138
Inclination97.7246
Eccentricity0.0001737
Argument of Perigee105.1513
Mean Anonmoly254.9888
Mean Motion14.74712715
Decay Rate1.247E-05
L11 39030U 12073A 25035.14225117 .00001247 00000+0 19368-3 0 9999
L22 39030 97.7246 251.6138 0001737 105.1513 254.9888 14.74712715651119



Live tracking and technical data element details for GOKTURK 2 (NORAD 39030). GOKTURK 2 can be tracked NOW for your location showing map with azimuth and elevation plus other details from your city location.







IsCatalogInMostPopularTable: catalog: 39030, numindb: 508
Update: records affected: 1



GetName: 39030 GOKTURK 2

Hit Count: updated at: Thu, 15 May 2025 09:55:58 GMT